Weather History for MROC - November, 2011

Change the Weather History Date:

Wednesday, November 2, 2011

  Actual Average Record
Temperature  
Mean Temperature 74 °F -  
Max Temperature 82 °F 78 °F 86 °F (1997)
Min Temperature 66 °F 64 °F 62 °F (2006)
Cooling Degree Days 9    
Growing Degree Days 24 (Base 50)    
Moisture  
Dew Point 68 °F    
Average Humidity 87    
Maximum Humidity 100    
Minimum Humidity 55    
Precipitation  
Precipitation 0.00 in 0.17 in - ()
Sea Level Pressure  
Sea Level Pressure 29.92 in    
Wind  
Wind Speed 5 mph ()    
Max Wind Speed 12 mph    
Max Gust Speed -    
Visibility 4.7 miles    
Events Fog , Rain , Thunderstorm    
Averages and records for this station are not official NWS values.
T = Trace of Precipitation, MM = Missing Value Source: Averaged Metar Reports

Daily Weather History Graph

Daily Weather History Graph

Search for Another Location

Airport or City:

Trip Planner

Search our weather history database for the weather conditions in past years. The results will help you decide how hot, cold, wet, or windy it might be!

Date:

Astronomy

Nov. 02, 2011 Rise Set
Actual Time 5:27 AM CST 5:13 PM CST
Civil Twilight 5:05 AM CST 5:34 PM CST
Nautical Twilight 4:40 AM CST 5:59 PM CST
Astronomical Twilight 4:15 AM CST 6:24 PM CST
Moon 11:48 AM CST (11/2) 11:51 PM CST (11/2)
Length of Visible Light 12h 29m
Length of Day
11h 45m
Waxing Crescent, 51% of the Moon is Illuminated
Nov 2
Waxing Crescent
Nov 10
Full
Nov 18
Last Quarter
Nov 25
New
Dec 2
First Quarter

Hourly Weather History & Observations

Time (CST) Temp. Dew Point Humidity Pressure Visibility Wind Dir Wind Speed Gust Speed Precip Events Conditions
12:00 AM 68.0 °F 68.0 °F 100% 29.98 in 1.2 mi North 3.5 mph - N/A   Mostly Cloudy
1:00 AM 68.0 °F 66.2 °F 94% 29.94 in 1.9 mi NE 2.3 mph - N/A   Mostly Cloudy
2:00 AM 66.2 °F 66.2 °F 100% 29.92 in 3.1 mi NNE 2.3 mph - N/A   Mostly Cloudy
3:00 AM 66.2 °F 64.4 °F 94% 29.91 in 5.0 mi ENE 2.3 mph - N/A Fog Fog
4:00 AM 66.2 °F 64.4 °F 94% 29.92 in - NNE 5.8 mph - N/A   Clear
5:00 AM 68.0 °F 64.4 °F 88% 29.94 in - East 4.6 mph - N/A   Clear
6:00 AM 66.2 °F 64.4 °F 94% 29.96 in 6.2 mi SSW 2.3 mph - N/A Fog Patches of Fog
7:00 AM 68.0 °F 66.2 °F 94% 29.99 in 6.2 mi North 4.6 mph - N/A Fog Mostly Cloudy
8:00 AM 78.8 °F 66.2 °F 65% 29.99 in 6.2 mi NE 5.8 mph - N/A   Mostly Cloudy
9:00 AM 78 °F 65 °F 55% 29.83 in 12 mi East 6.9 mph - -   Scattered Clouds
9:00 AM 78.8 °F 64.4 °F 61% 29.99 in 6.2 mi East 6.9 mph - N/A   Mostly Cloudy
10:00 AM 77.0 °F 64.4 °F 65% 29.97 in 6.2 mi East 8.1 mph - N/A   Mostly Cloudy
11:00 AM 78.8 °F 69.8 °F 74% 29.95 in 6.2 mi West 8.1 mph - N/A   Mostly Cloudy
12:00 PM 77 °F 69 °F 69% 29.76 in 12 mi SW 9.2 mph - -   Haze
12:00 PM 77.0 °F 75.2 °F 94% 29.93 in 6.2 mi SW 9.2 mph - N/A   Mostly Cloudy
1:00 PM 77.0 °F 69.8 °F 78% 29.91 in 6.2 mi SW 11.5 mph - N/A   Mostly Cloudy
2:00 PM 75.2 °F 69.8 °F 83% 29.88 in 6.2 mi SW 11.5 mph - N/A   Mostly Cloudy
2:13 PM 75.2 °F 69.8 °F 83% 29.88 in 6.2 mi WSW 10.4 mph - N/A Thunderstorm Light Thunderstorm
3:00 PM 72 °F 70 °F 90% 29.79 in 2 mi WSW 8.1 mph - - Rain , Thunderstorm Thunderstorms and Rain
3:00 PM 71.6 °F 69.8 °F 94% 29.89 in 4.3 mi WSW 8.1 mph - N/A Rain , Thunderstorm Light Thunderstorms and Rain
3:25 PM 71.6 °F 69.8 °F 94% 29.90 in 1.9 mi WSW 6.9 mph - N/A Rain Light Rain
4:00 PM 71.6 °F 69.8 °F 94% 29.91 in 1.2 mi SSW 5.8 mph - N/A Rain Light Rain
4:40 PM 69.8 °F 69.8 °F 100% 29.92 in 0.9 mi SW 4.6 mph - N/A   Mostly Cloudy
5:00 PM 69.8 °F 68.0 °F 94% 29.92 in 1.2 mi WSW 4.6 mph - N/A   Mostly Cloudy
5:23 PM 69.8 °F 68.0 °F 94% 29.93 in 1.9 mi West 3.5 mph - N/A   Mostly Cloudy
6:00 PM 69 °F 68 °F 96% 29.84 in 0 mi WSW 3.5 mph - -   Mist
6:00 PM 69.8 °F 68.0 °F 94% 29.95 in 1.2 mi WSW 3.5 mph - N/A   Mostly Cloudy
7:00 PM 69.8 °F 68.0 °F 94% 29.97 in 2.8 mi Calm Calm - N/A   Mostly Cloudy
8:00 PM 69.8 °F 68.0 °F 94% 29.99 in 6.2 mi SSE 2.3 mph - N/A   Mostly Cloudy
9:00 PM 69 °F 68 °F 95% 29.86 in 9 mi Calm Calm - -   Scattered Clouds
9:00 PM 69.8 °F 68.0 °F 94% 30.00 in 6.2 mi Calm Calm - N/A   Mostly Cloudy
10:00 PM 69.8 °F 64.4 °F 83% 29.98 in - ENE 5.8 mph - N/A   Clear
11:00 PM 69.8 °F 62.6 °F 78% 29.97 in - East 5.8 mph - N/A   Clear